Simultaneous Nadir Overpasses (SNOs) Predictions

Prediction of SNOs between GOES-16 and TERRA Satellite Orbit:

Table of predicted SNOs for the next 14.0 days since TLE Epoch: 4/13/2017
Index Date Time (GOES-16) GOES-16 Lat,Lon TERRA Lat,Lon Distance(km) Time Diff (sec)
1 04/15/2017 16:22:18 0.00, -89.50 -0.40, -87.71 203.88 80
2 04/16/2017 04:43:42 -0.00, -89.48 -0.73, -92.90 389.38 80
3 04/18/2017 04:31:33 0.02, -89.48 -0.07, -89.96 53.84 80
4 04/20/2017 04:16:44 0.02, -89.49 0.55, -87.01 281.87 80
5 04/20/2017 16:38:01 -0.03, -89.52 0.52, -92.18 302.05 80
6 04/22/2017 16:28:33 -0.03, -89.53 -0.10, -89.23 33.81 80
7 04/24/2017 16:16:26 -0.03, -89.54 -0.73, -86.29 369.61 80
8 04/25/2017 04:37:51 0.03, -89.52 -0.38, -91.49 223.08 80
9 04/27/2017 04:23:05 0.03, -89.54 0.27, -88.56 112.27 80
10 04/27/2017 16:44:22 -0.03, -89.56 0.85, -93.72 472.50 80




NCC Satellite Simultaneous Nadir Overpasses (SNOs) Prediction Service
